User: anonymous   Login
Location: SAPM � Hemmingford
(45.0500°N, 73.5833°W)
Time: 00:10:11
(UTC-04:00)
Language:

Cosmos 1674 Rocket - Orbit

View from above orbital plane
View from above orbital plane
View from above satellite
View from above satellite

Ground track
Ground track

The orbit data is extracted from the following two-line orbital elements,

1 15945U 85069B   18170.43999928 +.00000077 +00000-0 +62612-5 0  9998
2 15945 082.5268 149.0781 0020582 146.2931 213.9598 14.83974087754419
Epoch (UTC): 19 June 2018 10:33:35
Eccentricity: 0.0020582
inclination: 82.5268°
perigee height: 602 km
apogee height: 631 km
right ascension of ascending node: 149.0781°
argument of perigee: 146.2931°
revolutions per day: 14.83974087
mean anomaly at epoch: 213.9598°
orbit number at epoch: 75441

The dashed part of the orbit path shows where the satellite is in the earth's shadow,  

DLR